Tracking 28790 objects as of 19-Apr-2024
HD Live streaming from Space Station
objects crossing your sky now

GGSE 5

Track GGSE 5 now!
10-day predictions
GGSE 5 is classified as:


NORAD ID: 2834
Int'l Code: 1967-053D
Perigee: 909.9 km
Apogee: 919.8 km
Inclination: 70.0 °
Period: 103.2 minutes
Semi major axis: 7285 km
RCS: 0.7606 m2 (medium)
Launch date: May 31, 1967
Source: United States (US)
Launch site: AIR FORCE WESTERN TEST RANGE (AFWTR)
Your satellite tracking list
Your tracking list is empty




NASA's NSSDC Master Catalog

Two Line Element Set (TLE):
1  2834U 67053D   24110.20266835  .00000139  00000-0  14018-3 0  9998
2  2834  69.9754  22.2405 0006792 174.1425 185.9761 13.95992492896612
Source of the keplerian elements: AFSPC